EW9431 Weather Reports


time (UTC)temp
C
wind
direction
speed
KPH
gust
KPH
rain 1hr
cm
rain 24hr
cm
rain mn
cm
humidity
%
barometer
mb
20260504151009 16 330 0.0 6.4 0.00 0.00 0.00 62 1010.0
20260504150508 16 337 1.6 6.4 0.00 0.00 0.00 58 1009.9
20260504141054 15 14 4.8 9.7 0.00 0.00 0.00 59 1009.6
20260504140553 15 305 4.8 6.4 0.00 0.00 0.00 61 1009.7
20260504130544 14 20 4.8 8.0 0.00 0.00 0.00 59 1009.2
20260504110531 15 10 1.6 6.4 0.00 0.00 0.00 61 1009.2
20260504100521 15 10 3.2 6.4 0.00 0.00 0.00 58 1009.0
20260504081548 19 5 0.0 3.2 0.00 0.00 0.00 47 1008.8
20260504081048 19 120 0.0 3.2 0.00 0.00 0.00 47 1008.8
20260504080551 19 120 0.0 6.4 0.00 0.00 0.00 46 1008.8
20260504050530 21 31 12.9 22.5 0.00 0.00 0.00 41 1008.6
20260504045529 21 353 9.7 20.9 0.00 0.00 0.00 41 1008.6
20260504045029 21 323 11.3 20.9 0.00 0.00 0.00 41 1008.6
20260504044520 21 349 11.3 19.3 0.00 0.00 0.00 41 1008.6
20260504044012 21 10 11.3 19.3 0.00 0.00 0.00 40 1008.6
20260504043514 21 39 11.3 17.7 0.00 0.00 0.00 40 1008.6
20260504043015 21 351 9.7 17.7 0.00 0.00 0.00 40 1008.6
20260504042513 21 5 8.0 19.3 0.00 0.00 0.00 40 1008.6
20260504042011 21 10 9.7 19.3 0.00 0.00 0.00 40 1008.7
20260504041533 21 10 9.7 17.7 0.00 0.00 0.00 40 1008.7
20260504041010 21 351 9.7 16.1 0.00 0.00 0.00 40 1008.7
20260504040510 21 16 6.4 16.1 0.00 0.00 0.00 41 1008.7
20260504040019 21 333 8.0 12.9 0.00 0.00 0.00 41 1008.7
20260504035510 21 31 8.0 16.1 0.00 0.00 0.00 41 1008.6
20260504035010 21 360 8.0 16.1 0.00 0.00 0.00 42 1008.6
20260504034510 21 10 3.2 8.0 0.00 0.00 0.00 43 1008.6
20260504034009 22 355 3.2 6.4 0.00 0.00 0.00 44 1008.6
20260504033509 22 360 1.6 4.8 0.00 0.00 0.00 43 1008.6
20260504033009 22 360 1.6 4.8 0.00 0.00 0.00 43 1008.6
20260504032515 22 330 0.0 4.8 0.00 0.00 0.00 43 1008.6
20260504032007 22 360 0.0 6.4 0.00 0.00 0.00 42 1008.6
20260504031507 23 335 3.2 6.4 0.00 0.00 0.00 41 1008.6
20260504031005 23 343 3.2 6.4 0.00 0.00 0.00 40 1008.6
20260504030505 23 348 3.2 4.8 0.00 0.00 0.00 39 1008.6
20260504030005 24 347 3.2 6.4 0.00 0.00 0.00 39 1008.6
20260504025507 25 5 3.2 6.4 0.00 0.00 0.00 39 1008.6
20260504025005 25 339 1.6 4.8 0.00 0.00 0.00 39 1008.6
20260504024505 26 286 0.0 3.2 0.00 0.00 0.00 39 1008.7
20260504024046 26 286 0.0 4.8 0.00 0.00 0.00 38 1008.6
20260504023546 27 286 0.0 4.8 0.00 0.00 0.00 36 1008.7
20260504023045 27 205 0.0 3.2 0.00 0.00 0.00 35 1008.8
20260504022545 27 205 0.0 3.2 0.00 0.00 0.00 33 1008.8
20260504022045 28 205 0.0 4.8 0.00 0.00 0.00 32 1008.8
20260504021549 28 205 1.6 4.8 0.00 0.00 0.00 31 1008.8
20260504021047 28 202 0.0 6.4 0.00 0.00 0.00 30 1008.8
20260504020542 28 187 3.2 6.4 0.00 0.00 0.00 29 1008.9
20260504020044 28 220 3.2 6.4 0.00 0.00 0.00 28 1008.9
20260504015542 28 257 3.2 4.8 0.00 0.00 0.00 28 1008.9
20260504015042 28 193 0.0 6.4 0.00 0.00 0.00 28 1008.9
20260504014542 28 234 1.6 6.4 0.00 0.00 0.00 28 1008.9
20260504014044 28 349 1.6 4.8 0.00 0.00 0.00 27 1009.1
20260504013540 28 159 1.6 6.4 0.00 0.00 0.00 29 1009.2
20260504013054 28 228 1.6 6.4 0.00 0.00 0.00 27 1009.2
20260504012538 29 226 1.6 8.0 0.00 0.00 0.00 28 1009.3
20260504012039 29 274 3.2 8.0 0.00 0.00 0.00 27 1009.3
20260504011536 28 208 1.6 8.0 0.00 0.00 0.00 28 1009.4
20260504011034 28 197 1.6 6.4 0.00 0.00 0.00 27 1009.4
20260504010534 28 287 1.6 6.4 0.00 0.00 0.00 27 1009.6
20260504010037 28 188 1.6 9.7 0.00 0.00 0.00 28 1009.6
20260504005533 28 220 4.8 9.7 0.00 0.00 0.00 28 1009.6
20260504005032 28 188 3.2 11.3 0.00 0.00 0.00 27 1009.7
20260504004530 28 260 0.0 11.3 0.00 0.00 0.00 28 1009.7
20260504004029 28 239 1.6 6.4 0.00 0.00 0.00 30 1009.8
20260504003528 28 217 0.0 11.3 0.00 0.00 0.00 30 1009.9
20260504003026 28 216 3.2 11.3 0.00 0.00 0.00 30 1009.9
20260504002525 28 227 3.2 6.4 0.00 0.00 0.00 30 1010.0
20260504002025 27 171 3.2 6.4 0.00 0.00 0.00 30 1010.0
20260504001530 27 165 1.6 8.0 0.00 0.00 0.00 31 1010.1
20260504001022 27 170 0.0 8.0 0.00 0.00 0.00 31 1010.1
20260504000526 27 183 4.8 8.0 0.00 0.00 0.00 30 1010.2
20260504000019 27 170 1.6 8.0 0.00 0.00 0.00 31 1010.2
20260503235518 27 233 3.2 11.3 0.00 0.00 0.00 31 1010.3
20260503235018 27 207 4.8 11.3 0.00 0.00 0.00 31 1010.4
20260503234517 27 259 3.2 12.9 0.00 0.00 0.00 32 1010.4
20260503234016 27 210 4.8 12.9 0.00 0.00 0.00 32 1010.5
20260503233515 27 210 1.6 11.3 0.00 0.00 0.00 35 1010.5
20260503233019 27 196 1.6 11.3 0.00 0.00 0.00 32 1010.5
20260503232517 27 145 1.6 9.7 0.00 0.00 0.00 32 1010.7
20260503232012 27 187 4.8 9.7 0.00 0.00 0.00 32 1010.7
20260503231511 26 226 4.8 8.0 0.00 0.00 0.00 33 1010.8
20260503231010 26 194 3.2 8.0 0.00 0.00 0.00 33 1010.8
20260503230511 26 193 4.8 11.3 0.00 0.00 0.00 33 1010.9
20260503230030 26 136 6.4 11.3 0.00 0.00 0.00 34 1011.0
20260503225507 26 171 6.4 9.7 0.00 0.00 0.00 35 1011.1
20260503225006 26 182 8.0 9.7 0.00 0.00 0.00 34 1011.2
20260503224505 26 178 6.4 11.3 0.00 0.00 0.00 34 1011.2
20260503224004 26 187 4.8 11.3 0.00 0.00 0.00 35 1011.2
20260503223504 26 168 6.4 14.5 0.00 0.00 0.00 34 1011.3
20260503223003 26 220 6.4 14.5 0.00 0.00 0.00 34 1011.4
20260503222602 26 197 6.4 11.3 0.00 0.00 0.00 35 1011.4
20260503222059 25 203 3.2 9.7 0.00 0.00 0.00 35 1011.6
20260503221604 25 254 4.8 11.3 0.00 0.00 0.00 35 1011.6
20260503221058 25 174 4.8 12.9 0.00 0.00 0.00 35 1011.7
20260503220555 25 203 6.4 12.9 0.00 0.00 0.00 36 1011.8
20260503220054 25 181 6.4 11.3 0.00 0.00 0.00 35 1011.8
20260503215548 25 180 4.8 11.3 0.00 0.00 0.00 38 1011.9
20260503215045 25 182 6.4 14.5 0.00 0.00 0.00 36 1011.9
20260503214544 25 172 4.8 14.5 0.00 0.00 0.00 36 1012.0
20260503214043 25 168 4.8 11.3 0.00 0.00 0.00 36 1012.0
20260503213543 25 207 3.2 11.3 0.00 0.00 0.00 38 1012.1
20260503213045 24 223 3.2 12.9 0.00 0.00 0.00 37 1012.2
20260503212541 24 216 6.4 12.9 0.00 0.00 0.00 36 1012.2
20260503212040 24 206 4.8 12.9 0.00 0.00 0.00 37 1012.2
20260503211539 24 203 6.4 11.3 0.00 0.00 0.00 37 1012.3
20260503211038 24 196 6.4 12.9 0.00 0.00 0.00 38 1012.4
20260503210538 24 249 4.8 14.5 0.00 0.00 0.00 37 1012.5
20260503210037 24 199 4.8 14.5 0.00 0.00 0.00 38 1012.5
20260503205537 24 175 6.4 14.5 0.00 0.00 0.00 37 1012.5
20260503205036 24 201 6.4 12.9 0.00 0.00 0.00 38 1012.6
20260503204537 24 179 8.0 11.3 0.00 0.00 0.00 38 1012.6
20260503204035 24 180 8.0 14.5 0.00 0.00 0.00 39 1012.7
20260503203535 24 220 3.2 12.9 0.00 0.00 0.00 41 1012.7
20260503203037 24 201 4.8 12.9 0.00 0.00 0.00 41 1012.8
20260503202534 24 181 4.8 12.9 0.00 0.00 0.00 40 1012.8
20260503202033 24 286 4.8 14.5 0.00 0.00 0.00 39 1012.9
20260503201532 24 203 3.2 14.5 0.00 0.00 0.00 40 1013.1
20260503201030 24 162 8.0 12.9 0.00 0.00 0.00 39 1013.1
20260503200530 24 215 6.4 14.5 0.00 0.00 0.00 40 1013.1
20260503200030 24 213 8.0 14.5 0.00 0.00 0.00 40 1013.2
20260503195528 24 231 8.0 14.5 0.00 0.00 0.00 41 1013.2
20260503195027 24 214 6.4 12.9 0.00 0.00 0.00 41 1013.2
20260503194526 23 224 6.4 11.3 0.00 0.00 0.00 42 1013.3
20260503194025 23 266 3.2 12.9 0.00 0.00 0.00 42 1013.3
20260503193525 23 223 4.8 9.7 0.00 0.00 0.00 43 1013.4
20260503193038 23 191 3.2 9.7 0.00 0.00 0.00 43 1013.5
20260503192521 23 205 3.2 9.7 0.00 0.00 0.00 40 1013.6
20260503192020 23 262 3.2 12.9 0.00 0.00 0.00 41 1013.6
20260503191538 23 212 6.4 12.9 0.00 0.00 0.00 42 1013.6
20260503191018 23 212 4.8 11.3 0.00 0.00 0.00 43 1013.7
20260503190516 23 176 6.4 11.3 0.00 0.00 0.00 43 1013.8
20260503190027 23 216 1.6 11.3 0.00 0.00 0.00 42 1013.9
20260503185516 23 166 4.8 9.7 0.00 0.00 0.00 43 1013.9
20260503185013 23 199 4.8 11.3 0.00 0.00 0.00 44 1013.9
20260503184513 23 181 4.8 12.9 0.00 0.00 0.00 43 1014.0
20260503184012 22 173 6.4 12.9 0.00 0.00 0.00 44 1013.9
20260503183515 22 262 3.2 12.9 0.00 0.00 0.00 45 1013.9
20260503183009 22 143 4.8 11.3 0.00 0.00 0.00 44 1014.0
20260503182509 22 226 6.4 11.3 0.00 0.00 0.00 45 1014.0
20260503182007 22 203 6.4 11.3 0.00 0.00 0.00 44 1014.0
20260503181505 22 139 4.8 14.5 0.00 0.00 0.00 44 1014.0
20260503181003 22 172 4.8 14.5 0.00 0.00 0.00 46 1014.0
20260503180501 22 172 4.8 11.3 0.00 0.00 0.00 44 1013.9
20260503180005 22 199 3.2 11.3 0.00 0.00 0.00 46 1014.0
20260503175600 22 157 6.4 12.9 0.00 0.00 0.00 47 1014.0
20260503175058 21 167 3.2 11.3 0.00 0.00 0.00 47 1014.1
20260503174559 21 205 3.2 11.3 0.00 0.00 0.00 46 1014.1
20260503174056 21 187 3.2 11.3 0.00 0.00 0.00 48 1014.1
20260503173554 20 146 4.8 11.3 0.00 0.00 0.00 49 1014.1
20260503173058 20 233 4.8 9.7 0.00 0.00 0.00 50 1014.1
20260503172551 20 232 1.6 9.7 0.00 0.00 0.00 52 1014.1
20260503172050 20 199 3.2 9.7 0.00 0.00 0.00 53 1014.2
20260503171550 20 205 1.6 6.4 0.00 0.00 0.00 53 1014.2
20260503171048 20 213 3.2 6.4 0.00 0.00 0.00 54 1014.2
20260503170546 19 219 1.6 9.7 0.00 0.00 0.00 55 1014.2